Wind_Speed
22 26 29 28 26 23 20 19 20 21 22 24 27 30 31 31 30 30 31 32 32 31 28 25 23 23 25 28 26 22 22 22 21 21 22 21 20 21 21 22 26 30 29 29 30 29 29 30 24 21 25 26 30 34 31 29 31 33 35 33 28 28 30 28 22 19 20 22 25 31 32 29 29 34 35 29 27 31 29 26 26 26 23 23 24 27 31
18 22 25 25 22 19 19 19 20 21 22 26 29 30 30 30 30 30 31 32 30 28 26 24 24 26 27 27 25 23 22 21 20 20 21 20 19 20 21 22 25 29 30 31 32 29 29 30 22 19 23 23 27 34 33 30 31 33 36 36 32 29 29 28 23 21 24 26 27 30 34 34 30 32 37 33 28 28 28 27 26 28 26 25 27 30 31
17 21 22 21 19 18 18 19 20 21 24 29 30 30 31 31 31 31 31 31 29 27 26 25 25 27 27 26 24 22 21 19 18 18 18 19 18 18 20 21 23 29 31 31 31 29 30 32 29 29 30 26 26 33 34 32 32 33 36 38 36 32 29 29 27 24 27 31 31 32 36 37 32 29 32 34 31 28 29 29 28 28 26 24 27 28 27
19 20 20 18 17 17 17 18 19 22 27 30 30 31 31 31 31 30 30 29 27 26 27 26 23 23 26 26 22 20 19 17 17 18 16 17 17 17 19 20 22 27 30 30 31 31 31 33 34 36 35 30 29 33 34 34 35 35 36 38 38 36 33 34 33 29 28 31 32 31 34 37 34 29 28 32 31 27 28 30 30 31 27 23 27 30 28
19 19 19 17 15 16 16 17 20 25 29 30 30 31 30 31 31 29 27 27 27 28 29 26 22 22 25 23 19 18 19 18 17 16 14 14 15 17 19 20 21 24 27 29 31 33 33 33 33 34 34 32 31 33 35 36 37 36 35 35 37 38 38 38 37 34 31 32 33 33 33 36 34 30 31 33 32 30 32 33 31 30 27 25 29 33 33
18 18 17 15 13 14 16 17 23 28 29 29 30 31 30 32 30 26 26 28 28 29 29 26 25 24 22 19 19 20 19 16 14 13 11 11 13 14 16 17 18 20 22 26 30 33 33 31 30 32 34 32 31 33 37 37 36 35 34 35 37 38 37 37 36 34 31 32 34 34 33 34 34 33 34 35 35 36 35 33 30 28 28 27 30 33 34
16 15 13 9 10 13 15 20 27 30 29 29 31 31 31 33 30 25 25 27 27 29 29 27 26 24 21 21 23 21 17 15 14 12 11 12 13 13 13 13 13 16 20 25 30 31 31 30 30 31 31 31 32 33 36 36 35 35 37 37 37 37 38 38 35 33 32 33 34 34 34 36 38 37 35 35 37 38 36 34 33 32 30 28 28 30 32
11 12 10 7 9 13 17 24 29 29 29 30 30 31 33 34 31 27 27 26 24 27 28 27 25 24 24 25 25 21 17 15 14 13 13 15 15 14 13 11 12 15 19 24 27 28 29 27 26 28 29 30 33 34 35 36 36 37 39 39 37 36 37 38 36 32 32 33 33 34 36 37 36 34 33 33 33 34 35 37 36 33 31 29 25 23 25
7 7 6 8 11 16 22 27 28 28 29 29 30 31 33 34 31 28 27 25 23 25 27 26 25 24 26 27 25 22 17 13 13 16 16 17 16 13 13 13 13 16 18 20 23 25 27 25 23 26 28 29 29 31 33 35 37 39 39 39 38 36 34 36 36 31 29 31 32 33 36 37 35 33 33 32 30 30 34 35 33 30 30 28 25 22 20
5 4 4 8 14 20 24 26 27 27 29 29 30 31 32 33 31 28 27 26 25 25 25 25 25 24 27 28 24 21 18 14 15 19 17 17 17 16 18 17 14 16 18 20 23 25 24 25 26 27 27 26 27 27 27 30 33 36 37 37 37 36 33 33 34 31 28 29 29 29 32 37 37 36 37 35 32 31 32 32 31 31 30 27 24 22 20
3 4 5 11 19 24 24 25 26 27 28 28 29 31 32 33 31 28 28 28 27 26 24 25 26 23 25 28 23 20 20 18 18 20 18 16 17 19 22 21 18 17 17 20 24 25 22 24 27 27 25 25 26 25 23 23 26 29 32 33 33 33 30 29 30 29 27 26 27 26 28 33 34 35 35 34 32 32 32 32 32 32 31 29 24 21 20
3 5 8 15 23 25 24 25 26 26 27 28 29 31 32 32 30 29 30 29 28 28 26 26 27 26 27 28 23 19 19 17 17 19 17 15 15 17 18 19 20 19 17 19 24 24 21 23 25 25 24 25 26 24 21 20 21 23 26 28 29 28 27 26 26 26 25 25 26 27 27 27 28 30 30 31 31 31 31 32 32 32 31 29 25 23 22
4 8 13 20 25 25 24 25 25 26 26 27 28 30 31 31 30 31 31 31 30 29 27 26 28 30 30 29 24 20 17 14 14 15 14 13 15 14 14 17 21 20 17 20 23 22 20 21 22 21 21 23 23 22 21 21 23 22 22 25 27 24 22 23 23 24 25 24 24 25 25 24 24 25 26 27 28 30 31 32 33 32 31 28 26 25 25
7 13 19 23 24 23 23 24 25 26 26 26 28 30 31 30 31 32 33 32 30 29 27 28 31 32 31 28 25 21 17 14 12 11 10 11 13 14 14 17 21 20 19 20 20 19 18 18 19 20 19 20 21 19 18 22 24 20 18 23 27 23 18 21 23 22 22 22 22 22 23 22 22 23 24 24 26 28 31 32 32 32 31 30 28 27 26
12 18 21 22 21 21 22 24 25 26 26 27 29 31 31 30 31 33 32 28 28 29 29 31 34 34 31 27 24 21 17 15 12 11 10 9 10 13 16 18 20 19 18 17 16 15 15 16 19 21 19 19 20 19 18 21 22 19 17 22 26 21 15 19 23 22 21 22 21 21 21 23 24 25 24 24 25 27 27 27 29 31 30 30 30 29 28
18 21 20 20 20 21 23 25 26 26 27 30 31 31 30 30 30 30 28 26 29 31 31 33 36 35 30 25 22 20 18 15 12 11 11 8 8 12 16 18 19 16 14 13 12 12 13 14 16 16 16 16 18 18 17 18 19 19 17 19 22 20 15 17 20 19 19 19 19 20 22 24 25 25 24 24 25 26 27 27 29 31 30 30 30 29 28
20 20 19 19 20 22 25 26 26 28 31 33 32 30 28 29 28 27 26 27 30 30 31 35 37 33 28 24 21 19 18 17 14 12 11 10 9 12 16 17 17 14 11 10 10 11 13 15 13 11 12 14 15 15 14 15 16 17 16 17 18 18 15 16 17 17 17 16 15 19 23 24 24 24 25 26 26 26 27 29 30 30 31 31 31 30 30
19 19 18 19 22 25 26 26 28 32 34 33 30 27 27 28 27 26 27 28 30 30 32 35 34 30 26 22 20 19 19 19 17 14 12 12 10 12 15 15 13 12 11 10 9 9 13 16 15 13 13 15 16 16 16 17 17 17 18 18 18 18 17 18 18 18 18 17 16 18 21 22 23 25 26 26 27 27 28 29 29 28 29 30 31 31 31
18 18 19 22 25 26 26 29 33 35 34 30 28 28 28 27 26 27 28 29 30 30 30 31 30 27 24 20 19 19 20 20 18 15 13 13 12 11 12 12 11 11 11 10 9 9 12 14 14 13 13 15 18 18 18 18 18 19 20 20 20 20 20 20 20 20 20 20 19 20 20 21 23 25 26 26 28 28 28 27 26 26 27 28 29 30 30
17 19 23 25 25 25 28 32 35 34 30 28 28 28 28 26 26 28 30 31 31 29 27 26 26 26 24 21 19 20 19 18 17 15 14 14 13 12 12 11 11 11 11 11 11 11 12 14 14 14 13 14 17 19 19 19 20 21 22 22 22 22 22 21 22 23 22 21 22 23 22 21 23 25 26 27 27 27 26 25 24 25 26 27 27 28 28
19 24 25 25 26 30 33 35 34 31 29 29 28 26 25 27 30 32 32 31 30 28 27 26 25 27 26 22 19 19 18 16 15 14 13 13 13 13 11 11 11 12 12 12 12 12 13 13 14 15 14 13 16 19 19 19 20 21 22 23 23 23 23 24 25 25 23 22 24 25 23 22 24 26 25 26 27 27 27 27 26 26 27 27 28 28 28
24 26 25 26 31 36 36 33 31 30 30 28 26 25 26 30 34 34 32 30 29 28 26 24 25 28 27 22 18 17 15 15 15 14 12 13 14 13 11 10 11 13 12 12 13 13 14 14 15 16 16 16 17 18 18 18 19 21 22 23 23 23 24 25 25 25 26 26 26 26 24 25 26 26 26 27 27 27 27 27 27 27 27 27 27 27 27
26 24 25 31 36 35 32 31 31 29 27 25 25 28 31 34 34 32 30 29 27 25 22 22 24 28 28 23 19 15 13 14 15 14 13 13 13 13 12 10 11 13 13 14 13 13 14 16 16 17 17 18 18 17 18 19 20 20 21 22 23 23 25 26 25 25 27 29 29 28 28 28 28 27 27 27 27 26 26 26 26 26 26 26 27 27 27
24 24 29 34 34 31 31 32 29 25 23 23 27 32 34 34 33 31 28 25 23 21 20 20 22 26 27 24 19 14 12 14 15 14 13 13 13 13 12 11 12 13 13 14 15 13 13 15 16 17 17 18 18 18 20 21 20 19 20 21 23 25 26 26 27 27 28 28 28 28 28 28 28 28 27 27 27 26 26 25 25 25 25 26 26 27 27
25 30 34 33 31 32 32 29 26 24 25 27 31 33 33 32 31 28 24 22 20 18 18 20 21 23 23 21 18 14 13 15 15 14 14 13 12 12 11 11 12 12 13 13 14 14 13 14 16 17 17 17 18 19 21 21 21 21 22 22 24 26 26 26 27 28 28 28 27 27 28 28 28 27 27 27 27 26 26 25 25 25 25 26 26 26 27
32 35 33 32 32 32 30 27 27 28 28 28 30 30 28 28 27 24 22 22 20 17 17 19 20 21 20 19 17 16 14 14 14 13 12 12 11 10 10 10 10 10 11 12 12 13 14 15 17 18 18 19 20 20 20 21 22 23 24 24 24 24 25 26 28 28 27 28 28 28 28 28 28 27 26 26 26 25 25 25 25 25 25 26 26 26 26
35 33 32 33 33 30 28 28 29 28 26 25 25 26 25 26 25 24 23 23 20 18 19 20 21 21 20 18 17 15 14 13 12 11 10 9 9 8 8 8 9 9 11 13 14 15 17 18 19 21 21 22 23 23 23 24 25 27 28 28 27 26 27 29 29 28 29 30 30 30 29 28 27 26 26 25 25 25 25 25 24 25 25 25 26 26 27
34 33 33 33 31 29 29 30 29 27 26 26 26 27 28 28 27 24 23 21 20 20 22 22 21 20 19 17 16 14 13 11 10 9 8 7 7 7 7 9 10 12 13 15 16 18 19 20 21 22 23 23 24 25 26 27 29 30 30 29 30 31 33 32 30 31 32 32 30 30 29 27 26 27 26 26 25 25 25 25 25 25 25 25 26 26 26
33 34 33 31 29 29 30 30 28 28 28 27 27 29 30 28 25 24 22 21 21 22 23 23 21 19 17 16 14 12 10 9 8 7 6 6 6 7 8 10 11 13 14 15 16 17 17 17 17 17 18 19 19 20 22 25 26 26 27 29 31 34 36 36 35 34 33 30 29 29 28 28 28 28 27 27 26 26 26 26 26 26 27 27 27 27 27
33 34 33 30 29 29 30 29 27 26 25 23 24 27 27 25 25 24 22 22 23 23 22 22 20 18 15 14 12 10 9 8 7 6 5 5 6 8 9 10 12 13 14 15 15 15 14 14 14 14 14 15 17 18 19 21 22 22 24 28 31 33 35 37 38 37 35 33 33 32 30 29 29 29 28 28 27 27 27 27 28 28 28 28 28 28 28
34 33 31 29 27 28 30 29 26 25 23 21 22 24 25 25 25 24 23 24 24 23 22 20 19 16 14 12 11 10 8 7 6 5 5 5 7 8 9 10 11 11 12 13 14 15 14 14 14 14 14 14 15 17 18 19 20 23 26 29 31 33 35 37 38 38 37 36 36 35 33 32 31 30 30 29 29 28 29 29 29 29 29 29 29 29 28
34 32 30 28 26 26 28 27 25 25 23 21 22 24 24 25 26 25 25 24 24 22 20 19 18 16 14 12 11 9 8 6 5 4 4 5 6 7 8 9 9 10 10 10 14 16 14 13 13 13 12 13 13 14 15 16 18 21 24 27 30 32 34 36 37 37 38 38 37 35 34 32 31 30 30 30 29 29 30 29 30 30 30 29 29 28 27
33 30 28 26 25 24 25 25 25 23 22 22 23 24 24 25 26 26 25 24 22 21 19 18 17 16 14 12 10 8 7 5 3 3 4 4 6 7 8 9 9 10 10 8 14 16 13 12 12 11 10 10 10 10 11 12 13 14 16 19 23 27 29 31 32 33 33 34 33 32 31 30 30 30 29 29 29 29 30 30 30 30 29 28 28 27 26
31 29 28 26 25 24 24 24 24 22 21 22 23 23 25 26 26 26 25 23 20 19 18 17 16 16 13 11 9 7 6 4 2 2 2 3 5 6 7 9 11 12 10 9 14 16 12 10 10 8 7 8 8 7 8 8 9 8 8 11 15 19 22 25 27 28 29 30 30 30 29 29 29 29 28 27 27 27 28 29 29 28 27 27 26 25 24
30 29 28 27 26 24 23 24 24 21 20 22 23 24 25 26 26 25 24 22 20 18 16 15 14 14 13 11 9 7 6 4 1 0 1 3 5 6 8 11 13 11 7 9 14 15 12 9 7 6 5 6 6 6 5 5 6 6 6 7 10 13 16 20 22 25 27 28 29 29 28 26 25 25 25 25 24 24 24 24 25 26 25 24 24 23 22
29 30 29 28 27 24 22 21 21 20 21 23 24 24 25 26 26 24 23 21 20 18 16 14 12 11 11 10 9 7 6 4 2 2 3 4 5 7 9 11 10 5 4 10 14 14 11 8 6 6 5 6 6 5 4 3 5 6 7 8 9 11 13 15 18 20 22 24 25 25 24 24 23 23 23 22 22 21 21 21 21 22 22 22 22 22 21
29 30 29 28 27 24 22 22 22 22 23 24 24 24 25 25 24 23 21 20 18 16 15 13 11 9 10 10 9 7 6 4 3 3 4 4 5 6 8 9 9 5 6 10 12 13 11 8 6 6 7 7 6 6 3 1 3 6 9 10 10 12 12 13 15 18 19 21 22 23 24 24 24 23 22 21 21 20 20 20 21 22 22 22 21 21 21
30 30 29 27 26 23 21 22 23 23 23 24 25 25 26 25 24 22 21 19 17 15 14 11 10 10 10 9 8 7 6 5 4 3 3 3 4 5 7 9 10 7 5 7 9 10 10 8 7 7 7 8 7 6 4 4 4 3 11 12 12 13 13 13 15 17 18 19 21 22 23 23 22 21 21 20 19 18 18 19 20 21 21 20 19 19 19
31 31 30 28 26 24 21 21 22 23 24 24 25 25 26 25 24 22 20 19 17 16 13 11 10 9 8 7 7 6 6 5 4 3 3 4 4 5 6 8 10 8 5 4 7 8 9 8 8 8 8 8 8 6 5 4 5 4 9 12 13 14 15 16 17 18 18 19 19 20 20 19 19 19 19 19 19 17 16 17 18 20 20 20 20 20 19
34 33 32 30 28 26 24 22 23 24 25 25 25 27 27 26 24 22 21 19 17 15 12 11 10 9 7 7 6 6 5 5 4 3 4 4 4 5 5 7 9 9 7 4 4 7 9 9 9 9 9 10 9 7 6 6 7 8 8 10 13 15 16 18 20 19 18 17 16 16 18 20 20 20 19 19 18 17 17 18 19 20 21 22 22 22 20
36 35 34 32 30 28 26 25 25 25 26 25 26 27 27 26 24 22 20 18 17 14 12 11 10 9 7 7 7 6 5 5 4 4 4 4 4 5 5 6 7 8 8 7 5 4 7 10 10 10 10 11 10 8 7 8 9 10 11 11 12 13 13 15 16 17 16 16 15 17 21 23 24 23 22 20 20 20 20 20 20 21 21 22 21 20 19
38 37 35 34 32 30 28 27 27 27 27 26 26 27 28 26 24 23 21 18 17 15 13 11 10 9 8 7 6 6 6 5 5 5 4 4 4 4 5 5 6 7 7 8 9 6 5 8 10 11 11 11 10 9 9 10 11 12 12 12 13 12 11 12 14 15 17 16 16 17 22 25 27 26 24 22 20 20 21 20 19 19 19 19 18 17 16
40 39 38 36 35 33 31 29 29 28 28 27 27 28 29 27 25 23 21 18 16 15 13 12 11 10 8 7 6 5 5 5 5 5 4 4 4 4 5 5 5 6 7 8 9 9 8 7 9 11 12 11 10 11 10 10 11 12 12 12 13 13 14 14 15 16 17 17 16 16 18 21 23 22 21 20 19 19 19 19 18 18 18 18 18 19 19
41 42 41 40 38 37 36 33 30 29 30 29 28 28 29 27 24 22 21 19 17 15 15 13 12 10 9 7 6 5 5 5 5 5 5 4 4 4 4 5 6 6 7 7 8 9 10 9 9 10 12 11 11 12 12 11 11 12 12 12 13 14 16 16 15 15 15 16 16 15 15 16 18 18 18 19 19 19 19 19 20 20 21 22 23 23 23
43 44 44 43 42 41 40 36 32 29 29 29 28 28 29 28 25 23 22 21 19 17 16 15 12 10 9 7 6 5 5 5 4 5 5 5 4 4 4 5 5 6 7 7 8 10 10 10 10 10 11 12 12 13 13 12 11 12 12 12 13 15 15 15 15 15 15 15 16 16 16 17 18 19 19 20 21 22 23 24 25 25 26 26 26 25 24
45 45 46 46 46 43 41 38 34 31 30 30 30 28 28 28 28 26 24 22 20 18 17 16 13 11 9 8 7 6 5 5 4 5 5 5 5 5 5 5 5 6 7 8 9 10 11 11 11 12 13 13 12 12 13 13 12 12 12 12 12 14 15 15 15 15 15 15 16 17 18 19 20 21 23 25 26 28 28 28 28 27 27 26 25 24 23
48 47 48 49 48 46 44 41 36 32 30 31 30 28 27 28 28 27 25 23 22 20 18 17 14 12 10 9 7 6 5 5 4 5 5 5 5 5 5 5 5 5 6 7 8 10 11 12 12 12 14 15 14 13 12 12 12 12 12 12 12 13 15 16 16 16 16 16 17 18 20 23 25 26 27 28 29 29 29 28 27 26 25 24 24 23 22
49 50 50 50 50 48 45 42 38 35 33 32 31 30 29 28 28 27 26 25 23 21 19 18 15 13 12 10 8 7 6 5 4 5 5 5 6 6 5 5 5 6 6 7 8 9 10 12 12 13 13 15 16 16 15 14 13 13 13 14 14 15 15 16 17 17 18 20 21 23 25 27 28 29 28 28 27 26 26 25 25 24 23 22 22 21 20
50 52 52 52 51 49 47 44 42 39 36 34 33 33 30 28 27 27 27 26 24 22 21 19 17 15 13 11 9 8 6 5 4 5 5 5 5 5 5 5 6 6 6 7 7 8 9 11 12 13 13 14 16 17 17 16 16 16 16 16 16 16 17 18 19 20 22 24 26 27 28 28 27 27 26 25 24 24 23 22 22 21 21 20 20 19 18
50 52 52 52 51 50 49 47 45 42 37 36 36 35 32 29 28 28 28 28 26 24 22 20 18 16 14 12 10 9 7 6 4 4 6 6 5 4 4 5 5 5 6 6 7 8 8 9 11 12 13 13 14 15 17 17 17 17 17 18 18 18 19 20 22 23 25 25 26 26 25 25 24 24 23 23 22 21 21 20 19 19 19 18 18 17 17
51 51 52 52 51 50 50 49 47 44 41 39 38 37 36 34 32 31 31 30 28 25 23 22 19 17 15 13 12 10 8 6 5 4 6 7 6 5 5 4 4 5 6 6 7 8 8 9 10 11 12 13 13 13 14 16 17 17 17 17 18 19 20 21 22 23 23 23 22 22 22 22 21 21 20 20 19 19 19 18 18 18 17 17 17 16 16
50 51 51 51 52 51 50 50 49 47 44 42 39 38 38 37 34 33 33 32 30 27 25 23 21 19 17 15 14 12 10 7 6 5 5 7 7 7 6 4 4 5 6 6 6 7 8 9 10 10 11 12 13 13 13 14 15 16 16 17 17 18 19 20 20 20 20 20 19 19 19 18 18 18 17 17 17 16 16 16 17 17 17 17 16 16 15
Wind_Direction
238 222 218 220 225 227 226 224 222 218 210 201 193 188 186 184 185 189 192 192 194 195 197 199 196 192 188 187 188 191 196 196 198 203 200 199 204 203 202 204 203 200 198 195 189 183 190 199 199 199 201 200 196 191 189 190 192 195 195 192 195 194 190 195 201 198 197 202 207 206 204 204 210 210 205 204 210 213 211 210 216 219 210 208 219 226 233
214 202 204 209 213 217 221 219 216 212 201 189 185 183 181 182 184 188 191 191 192 193 196 194 187 186 187 187 188 190 192 195 198 198 196 197 202 202 201 206 206 201 199 202 200 193 191 192 190 195 204 204 198 195 192 189 191 196 196 193 195 194 191 193 197 192 191 194 198 201 203 205 208 208 207 209 212 213 208 202 211 222 214 207 214 223 231
180 182 190 196 200 207 215 215 212 204 189 181 180 180 180 180 183 188 190 188 188 191 191 185 182 186 187 186 189 190 190 193 192 188 191 198 201 202 203 206 205 202 201 201 201 198 196 194 191 196 204 204 194 191 191 190 191 195 195 195 197 195 193 197 197 194 196 199 198 201 202 203 206 206 206 210 211 211 208 203 209 219 215 210 216 222 228
158 167 176 183 191 201 209 212 205 190 179 176 177 178 178 179 182 187 189 185 185 188 183 176 179 190 191 187 186 186 184 181 179 182 190 197 201 203 204 202 201 201 202 202 200 199 201 202 202 202 204 203 196 193 192 191 192 193 193 196 197 195 195 199 197 195 199 201 202 204 203 201 203 204 203 205 206 205 206 207 213 217 213 211 218 223 228
147 156 165 174 187 198 206 207 193 178 174 175 176 176 176 176 179 184 185 183 184 183 177 173 179 188 190 186 179 174 173 170 171 178 186 195 201 202 200 197 195 196 201 204 203 202 204 207 208 208 207 204 200 198 197 196 196 196 195 196 196 195 197 199 198 197 196 197 198 201 200 200 203 204 202 201 202 204 204 205 211 216 213 213 218 221 225
139 150 161 170 184 199 203 195 179 172 172 175 175 174 174 174 175 177 180 182 182 180 176 175 178 180 180 178 172 168 165 163 165 171 183 204 214 204 194 193 191 191 194 196 197 201 206 209 210 210 209 205 202 202 202 202 199 195 196 198 197 198 199 200 201 200 198 198 199 198 198 198 202 205 203 200 202 206 205 202 204 208 209 214 219 220 222
134 145 155 169 191 199 195 181 173 171 172 174 173 172 173 173 172 171 175 179 180 180 178 175 174 173 170 168 167 166 164 161 163 168 181 208 223 211 194 191 192 190 185 184 189 197 203 208 210 209 208 207 205 204 204 204 200 196 197 199 198 198 200 200 200 200 200 201 199 197 196 197 201 203 202 201 204 207 206 204 204 204 206 212 218 218 218
130 142 153 178 196 192 180 172 170 170 171 172 172 171 172 173 170 169 171 172 177 182 178 173 170 168 166 164 163 162 159 156 166 174 174 187 207 208 194 186 185 184 183 185 191 196 200 206 210 209 209 209 207 206 205 203 201 199 199 199 198 198 199 200 199 199 201 202 199 198 199 200 202 203 202 203 205 206 206 205 204 205 208 212 215 211 208
121 137 166 187 184 176 169 167 169 170 170 171 171 171 173 173 170 168 168 168 174 180 175 169 168 166 164 164 161 158 153 150 172 180 169 166 177 184 178 175 178 179 181 187 190 194 199 203 203 204 206 206 205 206 206 205 204 204 202 200 200 199 197 197 199 201 202 200 199 201 201 202 204 203 201 202 203 204 204 202 203 208 213 217 220 215 209
124 146 189 184 171 165 163 165 169 170 169 169 170 171 172 172 171 168 167 167 168 170 169 165 163 163 165 165 161 158 156 161 176 177 166 154 151 154 157 158 169 182 181 180 182 187 194 193 187 187 192 194 194 194 196 198 200 202 202 200 199 199 197 196 199 204 206 202 200 200 202 204 207 205 203 205 206 206 207 208 211 216 218 222 227 228 227
156 174 183 173 165 161 162 166 168 168 167 168 169 171 172 171 171 168 165 163 159 159 165 164 160 163 169 167 162 162 165 171 175 172 169 158 144 147 155 155 160 174 176 175 174 173 176 181 181 182 183 184 184 182 182 183 185 190 195 195 194 195 196 196 198 202 206 206 204 204 204 205 207 207 207 210 211 210 211 215 219 223 226 230 234 238 239
175 171 169 167 163 161 163 166 166 165 165 167 169 170 171 170 170 166 161 158 155 155 162 167 163 166 171 167 164 165 167 169 169 168 173 169 149 145 154 162 167 169 168 170 169 165 167 175 179 183 182 180 180 179 176 174 174 176 181 184 185 187 189 192 194 196 199 202 204 206 205 204 206 207 208 211 212 213 214 217 222 227 232 235 235 234 236
169 164 162 162 161 162 164 164 163 162 163 166 168 168 168 167 166 163 157 154 153 154 162 171 170 167 167 165 163 164 161 157 159 160 166 173 169 160 157 163 168 164 159 165 170 171 174 175 176 179 176 174 178 180 178 176 174 169 168 175 180 182 184 188 191 194 196 198 202 205 204 202 204 206 208 210 212 213 215 218 223 227 231 235 234 232 232
164 159 157 159 161 163 164 161 160 160 161 164 165 164 164 163 161 159 154 152 155 159 166 174 172 166 164 163 164 164 157 148 150 155 162 170 175 175 167 160 159 152 147 156 166 170 173 174 174 174 171 171 176 179 178 180 181 176 174 183 187 186 185 191 195 197 196 198 203 206 205 205 207 207 208 211 212 214 216 218 222 226 228 231 233 234 234
156 155 155 160 161 161 160 158 156 157 158 160 160 158 157 157 156 155 154 155 161 165 168 171 168 166 165 165 165 165 158 148 149 160 168 167 171 177 171 163 157 147 139 147 155 157 161 162 164 167 169 172 175 172 169 173 178 178 177 181 183 179 175 184 191 195 198 202 207 206 203 205 209 210 212 213 214 217 219 219 223 227 229 230 231 233 235
154 156 157 159 159 157 156 154 152 154 156 154 151 149 149 151 153 154 156 161 166 165 165 166 166 166 167 164 163 166 165 158 156 161 164 161 171 181 172 160 155 146 136 141 150 159 165 161 157 161 166 171 177 177 174 174 177 179 178 175 176 177 173 175 183 193 201 209 213 210 207 208 209 210 212 214 215 218 220 221 223 225 228 229 230 231 233
156 159 158 157 157 154 152 150 150 151 149 146 143 144 148 153 156 158 161 163 163 161 160 163 166 168 168 162 158 164 169 167 163 162 164 164 174 183 174 160 153 149 143 145 154 168 176 171 166 171 175 176 181 183 185 189 189 190 191 189 191 196 193 186 188 194 197 201 207 209 208 208 210 211 212 214 216 219 221 223 225 225 226 228 230 232 234
157 158 157 155 153 150 148 148 149 147 144 142 143 148 154 156 157 161 162 160 158 158 159 164 168 170 168 164 158 162 169 172 170 167 167 170 177 180 173 162 156 158 160 160 165 178 182 178 180 188 190 188 187 187 192 197 196 195 198 201 206 211 209 203 201 201 202 205 212 216 212 208 210 213 213 214 217 220 223 226 227 227 229 230 231 233 235
155 156 154 151 148 147 147 148 146 143 141 143 150 154 156 155 155 160 160 156 156 156 157 164 169 169 168 165 160 162 168 170 170 168 167 173 182 185 179 172 170 174 177 177 180 186 187 185 187 192 196 199 199 198 201 202 201 203 205 206 209 214 214 211 210 210 210 211 215 222 219 211 212 215 214 216 219 221 225 228 228 229 231 233 234 234 235
153 151 148 147 146 145 145 144 142 140 142 150 155 156 155 153 154 156 156 155 155 153 153 160 167 169 168 165 161 164 165 163 164 167 170 177 183 187 187 188 188 189 191 190 190 191 193 194 194 193 197 205 207 206 208 208 208 210 211 211 214 216 216 215 215 215 215 213 217 224 222 215 217 219 219 221 225 227 230 233 231 231 234 235 235 235 235
149 147 146 145 143 141 139 139 140 143 150 154 156 157 156 154 152 153 153 154 155 154 154 160 167 169 167 161 158 161 162 162 166 170 175 180 183 183 186 192 195 196 197 197 198 198 198 200 202 201 201 209 213 212 213 215 215 215 216 217 218 218 216 217 219 219 217 217 221 225 225 222 225 226 225 228 231 232 234 235 235 235 236 237 237 237 236
146 145 143 142 139 136 135 138 145 152 155 155 157 159 157 152 148 148 150 153 155 156 158 161 167 170 169 164 159 159 163 170 173 170 172 180 184 184 185 190 195 197 199 201 203 205 206 206 207 208 208 212 217 216 215 219 222 221 220 220 220 220 218 219 222 221 220 222 225 227 228 229 231 231 231 233 234 235 236 237 237 237 236 237 238 238 237
145 144 142 140 138 136 139 146 153 156 155 156 158 155 150 145 144 144 147 150 152 154 158 161 167 172 174 175 173 169 170 175 175 171 172 178 184 188 189 191 196 199 202 203 203 207 213 212 212 213 213 215 218 217 216 220 222 223 223 223 222 223 222 222 223 223 223 225 227 229 231 233 234 235 235 235 236 236 236 236 236 236 236 236 237 237 237
143 139 137 138 139 143 148 153 155 154 152 153 152 147 144 143 142 143 147 152 153 153 154 157 165 172 175 180 184 180 172 172 174 176 178 179 182 188 190 192 194 197 202 205 205 208 213 214 215 218 218 218 219 219 220 221 221 222 225 225 223 224 224 223 224 224 225 226 227 229 230 232 232 233 233 234 234 234 234 234 233 233 234 234 235 236 237
136 134 136 141 146 149 150 150 150 147 145 144 143 143 142 141 140 143 151 154 153 153 153 154 162 169 173 178 183 181 173 171 174 177 180 180 182 186 189 191 194 199 204 208 211 215 218 218 221 224 222 222 224 225 226 227 225 224 226 225 224 226 227 226 226 227 227 227 227 228 230 230 229 229 229 230 231 232 232 232 232 231 232 232 233 235 235
136 137 142 148 150 148 147 146 144 141 138 137 140 143 142 140 142 150 155 150 148 152 153 152 156 163 168 174 178 178 175 172 172 174 175 178 182 187 190 197 204 213 220 224 227 230 230 230 233 234 232 230 231 232 232 231 229 228 229 229 228 229 230 230 229 230 230 229 228 228 229 229 228 228 228 228 229 230 231 231 230 231 232 232 233 234 234
141 145 149 151 148 146 145 142 136 132 131 133 140 144 145 147 153 157 154 149 151 155 153 150 152 156 161 167 170 170 169 168 169 173 177 180 187 194 204 216 227 236 243 246 247 247 247 245 244 243 241 239 238 238 237 236 234 233 234 234 231 230 231 231 228 227 228 228 226 226 227 228 228 227 226 227 228 229 231 231 231 231 232 233 234 235 235
148 151 153 151 148 146 143 136 129 130 135 139 144 149 153 157 160 158 154 152 155 155 152 151 152 153 154 158 161 162 164 168 172 177 184 190 201 217 233 246 253 256 258 258 257 255 253 250 247 247 246 243 240 240 240 240 240 240 240 239 236 234 235 235 232 229 230 229 228 228 227 227 227 227 226 226 228 230 232 233 234 234 235 235 236 236 236
153 154 154 151 148 148 144 135 133 139 144 145 149 153 157 161 162 160 158 155 152 152 152 150 149 149 149 153 158 161 163 169 174 180 192 209 230 247 257 263 267 268 268 266 262 257 252 248 245 243 240 236 234 235 236 239 241 242 242 241 239 237 237 237 235 233 232 231 230 229 227 225 225 226 227 228 229 232 235 236 237 238 238 238 238 238 238
156 155 154 151 150 151 146 139 140 148 150 150 154 155 158 163 164 160 157 153 148 149 149 146 144 147 148 152 158 160 162 168 178 190 211 235 252 263 270 272 273 273 272 268 258 247 239 235 232 228 227 229 231 234 238 241 244 245 244 243 242 240 238 237 235 233 231 228 227 226 225 225 226 228 230 232 233 235 237 238 239 239 239 240 240 240 239
158 157 156 155 153 153 150 148 152 158 157 155 156 158 159 162 161 157 154 151 148 148 148 146 145 146 149 152 154 157 163 174 187 201 223 251 265 270 276 277 276 278 279 266 243 227 221 223 225 224 227 231 234 238 244 247 250 250 250 248 246 243 239 237 235 232 229 227 226 225 224 225 227 229 231 233 236 237 238 239 239 239 240 239 239 239 238
160 159 159 158 156 155 156 158 161 161 158 156 157 159 159 158 156 154 152 150 149 149 150 149 147 145 146 152 154 156 162 172 187 213 240 264 270 272 280 285 285 293 295 263 226 214 214 218 218 220 224 230 236 243 248 253 258 257 254 248 243 239 237 234 232 229 226 224 223 223 224 225 227 230 231 233 234 236 237 237 237 238 238 238 238 238 237
161 160 160 160 158 157 161 166 165 160 157 156 158 159 158 156 154 154 153 152 153 153 153 152 149 145 145 149 150 152 158 165 187 228 251 276 287 288 295 299 299 304 301 255 215 209 212 214 213 216 223 230 239 247 250 258 266 263 252 242 235 232 230 228 226 225 224 222 221 220 221 221 223 226 228 230 232 234 235 236 236 236 236 236 236 235 235
162 160 160 159 158 158 163 168 166 161 157 158 160 160 158 157 156 155 154 154 155 154 155 155 152 148 146 146 146 148 150 152 177 236 264 303 314 311 311 314 312 306 290 239 208 204 207 207 207 214 223 229 235 243 249 257 263 258 241 230 226 222 220 218 217 215 214 213 213 214 215 218 220 222 224 226 229 231 234 234 233 231 230 230 230 229 229
163 161 160 158 157 159 163 164 164 164 164 163 164 163 160 159 158 157 156 156 155 154 157 160 158 153 149 146 145 144 141 135 135 273 335 338 336 335 333 329 323 308 268 212 197 198 201 200 200 207 213 216 219 228 240 250 248 234 214 204 207 208 207 207 208 207 206 206 207 208 210 212 216 218 219 220 221 223 226 227 226 223 221 220 221 221 221
164 164 164 163 162 166 171 171 172 175 173 169 167 165 163 162 161 160 159 159 157 156 159 162 161 157 151 147 145 142 132 117 98 62 28 8 1 357 349 344 343 333 195 184 186 190 193 194 196 196 192 192 198 202 209 238 244 224 202 195 199 200 199 200 201 202 203 204 205 205 205 204 206 208 209 209 210 213 214 212 211 212 211 211 213 215 214
168 169 171 169 168 175 184 188 188 186 179 173 171 168 166 165 165 163 162 160 159 159 160 161 162 162 156 150 146 139 125 109 92 66 42 26 22 15 6 8 22 59 141 168 177 183 188 190 192 191 183 179 178 173 162 281 276 222 196 191 192 191 189 189 189 189 191 194 195 196 196 195 197 201 204 205 206 206 204 202 203 207 209 209 210 211 210
172 173 174 173 171 175 183 190 190 186 179 176 175 172 169 170 169 166 164 162 162 163 164 163 165 167 162 151 144 135 119 106 91 71 56 48 42 34 27 32 45 68 122 159 171 182 189 188 188 192 184 172 162 148 113 35 3 197 182 177 173 171 171 170 170 174 179 182 186 190 191 191 194 200 201 199 196 194 191 189 192 197 199 198 197 195 191
177 177 178 178 175 175 180 184 185 181 178 179 179 176 174 173 172 169 168 167 166 167 166 164 166 170 162 145 135 128 116 105 93 81 75 66 57 55 49 48 54 65 90 147 175 190 193 183 184 194 186 162 144 133 116 74 60 117 160 168 167 166 166 165 165 168 171 174 178 184 186 187 190 192 189 183 182 183 180 175 174 177 179 178 176 174 171
183 183 184 183 181 181 182 184 183 182 181 181 181 179 177 176 175 173 173 172 170 169 167 163 166 170 159 139 131 128 120 111 101 92 85 74 66 68 66 61 64 67 72 97 161 194 196 186 185 190 178 156 142 140 148 144 125 119 134 158 167 167 167 166 163 160 158 161 168 176 179 178 178 177 173 172 174 176 175 173 173 174 174 173 172 171 171
188 189 189 188 187 188 188 186 186 187 185 184 183 181 180 179 178 177 177 175 174 172 169 167 169 169 159 147 142 139 131 122 110 98 90 81 77 79 77 75 76 73 70 72 85 146 185 187 187 184 169 153 148 155 163 158 142 126 125 142 158 160 158 158 157 153 152 156 165 171 171 169 168 167 168 170 172 172 172 174 175 174 173 171 170 170 169
193 193 193 192 193 195 195 191 190 190 189 186 184 183 182 181 182 181 180 179 178 174 171 173 174 171 166 160 155 148 142 132 119 106 95 86 86 86 84 86 86 82 76 73 72 83 133 164 173 174 164 153 154 164 164 153 140 127 124 135 150 153 147 147 152 154 153 154 158 162 162 162 163 167 170 171 171 170 171 171 170 168 167 166 164 162 161
197 197 197 197 198 201 202 198 194 192 191 189 186 185 185 185 185 184 182 181 180 176 175 179 181 176 172 169 165 158 150 138 124 114 104 93 92 93 92 94 95 90 84 82 80 80 92 119 148 163 163 158 160 166 164 152 141 133 129 136 148 153 152 152 155 156 153 148 146 148 152 156 160 164 166 165 164 163 162 160 158 157 157 154 150 147 144
200 201 201 201 201 204 206 203 198 196 195 192 188 187 188 188 187 186 186 185 183 181 182 186 187 182 174 171 171 167 156 142 128 120 113 104 99 99 99 101 104 100 94 92 91 89 87 95 118 146 160 166 168 169 166 158 150 144 141 142 146 149 151 153 156 157 155 150 148 150 153 155 157 159 160 159 157 154 151 148 147 146 143 139 137 135 134
203 203 203 204 205 207 208 206 201 199 198 195 191 190 191 190 189 191 192 190 187 185 187 190 191 187 180 176 174 171 162 148 133 126 121 114 107 107 108 108 108 109 107 102 96 93 92 92 98 116 137 155 167 171 168 164 159 154 150 150 152 151 149 150 155 158 157 154 152 153 155 156 157 158 158 155 150 146 142 140 139 137 135 134 133 133 133
204 205 206 206 208 209 210 208 204 200 199 197 194 193 193 193 194 195 195 192 190 190 191 193 193 190 186 184 181 176 171 159 142 131 126 121 115 111 113 115 115 116 116 113 106 100 97 96 96 102 113 128 145 160 166 169 170 165 157 156 160 158 152 150 155 160 159 154 151 152 153 154 154 154 152 148 144 141 139 138 137 136 135 136 136 136 136
204 206 207 209 210 211 212 210 206 202 200 198 195 194 195 197 198 197 195 194 194 194 194 195 194 191 189 191 190 186 181 169 150 135 128 126 124 120 118 122 129 131 129 125 120 114 108 104 102 104 108 113 121 134 147 158 165 167 163 162 165 163 155 153 157 159 155 151 150 150 150 148 146 145 143 141 140 139 139 139 139 140 139 139 139 140 140
205 206 208 209 210 212 213 211 207 205 203 199 196 196 198 199 199 198 196 195 196 196 197 197 196 193 193 196 197 195 189 176 157 142 133 130 135 137 132 127 128 134 141 140 135 128 122 116 112 110 111 113 116 120 125 133 141 148 151 154 155 153 149 150 153 153 150 148 147 146 144 142 141 140 139 139 140 141 141 142 142 142 143 144 144 144 145
205 207 209 209 210 211 212 211 209 207 204 201 199 199 200 199 199 199 198 196 196 198 200 200 198 195 195 198 201 202 198 188 168 147 136 136 145 150 145 138 132 133 143 153 151 143 136 131 126 122 119 117 117 118 119 121 125 129 133 136 137 139 141 143 145 145 145 145 144 143 142 141 141 141 141 142 142 143 144 145 146 147 147 148 149 149 150
206 207 208 209 209 209 210 211 210 208 205 203 202 202 201 201 200 199 199 199 199 200 202 202 201 199 198 199 203 206 207 203 187 155 138 140 151 158 156 152 145 137 139 150 158 159 154 148 141 137 133 130 126 124 123 122 123 124 125 127 130 133 136 139 141 142 143 143 143 143 143 144 144 144 145 145 147 148 149 150 152 153 154 155 155 156 156
207 206 207 208 208 207 208 210 210 207 205 204 204 203 203 202 202 200 200 201 201 202 203 203 203 201 199 200 203 208 211 210 201 172 143 141 153 168 173 168 156 144 139 143 154 163 167 165 159 153 148 145 142 138 134 132 131 131 130 131 133 136 139 141 142 144 145 145 146 147 147 147 148 149 150 151 152 154 156 157 159 161 162 162 163 163 163
207 206 205 206 206 206 207 208 208 207 205 204 204 203 203 203 203 203 201 201 201 204 205 204 204 204 202 201 204 208 211 212 208 191 161 151 160 176 185 179 165 153 149 148 152 161 169 174 175 171 165 160 157 154 150 147 145 144 143 143 143 144 146 148 149 150 152 152 153 153 154 155 155 156 157 158 160 162 164 166 168 170 171 171 171 171 171
Height
5461 5467 5474 5481 5486 5490 5493 5496 5498 5501 5503 5506 5510 5515 5520 5525 5530 5534 5538 5541 5545 5549 5552 5556 5559 5562 5564 5566 5569 5571 5574 5576 5579 5581 5583 5585 5587 5588 5590 5591 5593 5595 5598 5601 5603 5605 5608 5610 5614 5617 5618 5620 5623 5626 5630 5634 5637 5641 5644 5648 5650 5652 5654 5659 5662 5665 5669 5672 5675 5679 5681 5684 5685 5688 5693 5696 5698 5700 5705 5710 5712 5713 5715 5720 5722 5719 5716
5458 5464 5472 5478 5483 5488 5491 5493 5495 5498 5501 5504 5509 5514 5519 5524 5529 5533 5536 5540 5543 5548 5551 5555 5558 5560 5562 5565 5568 5570 5573 5575 5578 5580 5582 5584 5586 5587 5589 5590 5592 5595 5597 5599 5602 5604 5606 5610 5614 5616 5616 5618 5622 5625 5628 5632 5635 5638 5641 5644 5648 5651 5654 5657 5660 5663 5666 5668 5671 5674 5676 5679 5682 5686 5690 5693 5696 5698 5702 5707 5709 5710 5712 5716 5717 5714 5713
5457 5464 5471 5477 5482 5486 5489 5491 5493 5496 5499 5504 5508 5514 5518 5523 5528 5532 5535 5538 5543 5547 5550 5553 5557 5559 5561 5564 5567 5570 5572 5575 5577 5579 5581 5583 5584 5586 5588 5589 5591 5593 5595 5597 5600 5603 5606 5609 5611 5613 5614 5616 5620 5623 5627 5630 5633 5636 5639 5642 5645 5649 5653 5656 5658 5660 5662 5663 5666 5669 5672 5676 5680 5683 5687 5691 5693 5696 5700 5704 5705 5706 5709 5712 5712 5710 5711
5459 5465 5471 5476 5481 5484 5487 5489 5492 5495 5499 5503 5508 5513 5518 5523 5527 5531 5535 5538 5542 5546 5549 5552 5556 5559 5561 5563 5567 5570 5572 5574 5576 5578 5580 5581 5583 5585 5586 5588 5590 5592 5594 5597 5599 5602 5605 5607 5609 5611 5613 5616 5619 5622 5625 5629 5631 5633 5636 5639 5643 5647 5650 5652 5654 5657 5659 5662 5666 5669 5672 5675 5678 5681 5685 5688 5691 5695 5698 5701 5702 5703 5707 5709 5708 5707 5709
5463 5468 5473 5477 5480 5483 5485 5488 5491 5495 5499 5503 5508 5513 5518 5523 5527 5531 5535 5539 5541 5545 5548 5551 5555 5558 5561 5564 5567 5570 5572 5574 5576 5578 5579 5581 5582 5583 5585 5587 5589 5591 5593 5596 5599 5602 5605 5606 5609 5611 5613 5615 5618 5621 5624 5627 5629 5632 5636 5639 5642 5645 5647 5649 5652 5654 5656 5659 5663 5666 5669 5673 5677 5680 5682 5685 5689 5691 5693 5696 5699 5701 5704 5705 5703 5703 5705
5468 5471 5475 5478 5480 5482 5484 5487 5491 5495 5499 5503 5508 5512 5517 5522 5526 5530 5534 5538 5541 5544 5547 5550 5553 5557 5561 5565 5568 5570 5572 5575 5576 5578 5579 5580 5581 5582 5583 5585 5587 5589 5591 5594 5597 5601 5603 5606 5608 5610 5612 5615 5618 5620 5623 5625 5629 5632 5636 5638 5640 5643 5645 5648 5650 5653 5656 5658 5660 5664 5668 5672 5675 5677 5679 5682 5685 5686 5689 5693 5696 5698 5699 5699 5699 5701 5703
5472 5474 5478 5480 5481 5482 5485 5488 5491 5495 5500 5504 5508 5512 5517 5521 5525 5529 5533 5537 5541 5544 5547 5550 5554 5557 5561 5564 5567 5570 5573 5575 5576 5578 5579 5580 5580 5580 5581 5583 5585 5588 5590 5591 5595 5599 5602 5604 5607 5609 5611 5614 5617 5619 5621 5625 5629 5632 5634 5636 5639 5642 5644 5646 5648 5652 5654 5656 5659 5662 5665 5668 5670 5673 5676 5679 5681 5684 5687 5690 5691 5693 5695 5695 5696 5698 5701
5476 5477 5479 5481 5482 5483 5485 5488 5492 5496 5500 5504 5508 5512 5517 5521 5524 5528 5532 5537 5542 5545 5548 5551 5554 5558 5561 5564 5567 5570 5573 5574 5577 5579 5579 5580 5580 5580 5581 5583 5585 5587 5589 5591 5594 5598 5601 5603 5606 5608 5610 5612 5615 5617 5620 5624 5627 5630 5632 5634 5637 5640 5642 5645 5648 5651 5653 5655 5658 5661 5663 5665 5668 5672 5675 5678 5680 5682 5684 5686 5688 5690 5692 5693 5694 5696 5698
5478 5479 5481 5482 5482 5484 5486 5490 5493 5497 5501 5505 5509 5513 5517 5521 5525 5528 5532 5537 5541 5545 5548 5552 5555 5559 5562 5565 5568 5570 5572 5575 5577 5579 5580 5580 5580 5581 5582 5584 5586 5587 5589 5591 5595 5598 5600 5602 5605 5607 5609 5611 5614 5617 5619 5622 5625 5627 5630 5633 5636 5639 5641 5644 5647 5649 5651 5654 5657 5659 5661 5664 5666 5669 5672 5675 5677 5678 5679 5682 5685 5688 5689 5691 5693 5695 5697
5481 5481 5482 5482 5484 5486 5488 5491 5495 5498 5502 5506 5510 5514 5518 5522 5525 5528 5532 5536 5541 5546 5550 5553 5557 5561 5563 5565 5568 5571 5573 5576 5578 5579 5580 5581 5581 5582 5583 5585 5588 5589 5590 5592 5594 5597 5600 5602 5604 5606 5608 5611 5614 5616 5618 5621 5623 5626 5629 5631 5634 5637 5640 5643 5645 5648 5650 5652 5655 5658 5660 5661 5663 5665 5668 5671 5673 5674 5677 5680 5682 5685 5687 5689 5691 5694 5696
5482 5483 5483 5484 5485 5487 5490 5493 5496 5499 5503 5507 5510 5514 5518 5522 5526 5529 5533 5537 5541 5546 5552 5555 5559 5563 5565 5566 5569 5571 5573 5575 5577 5579 5580 5581 5582 5583 5584 5586 5588 5589 5591 5592 5594 5598 5601 5603 5604 5606 5609 5611 5613 5616 5618 5620 5622 5625 5628 5630 5633 5636 5639 5642 5644 5646 5649 5651 5653 5655 5657 5658 5660 5663 5666 5669 5670 5672 5675 5678 5680 5682 5685 5687 5690 5693 5695
5484 5484 5484 5486 5488 5490 5492 5494 5498 5501 5504 5508 5512 5515 5519 5523 5526 5530 5534 5538 5542 5546 5552 5556 5559 5562 5565 5567 5569 5571 5573 5575 5577 5579 5580 5582 5583 5584 5585 5587 5588 5590 5592 5594 5596 5598 5601 5603 5605 5607 5609 5611 5614 5616 5618 5620 5622 5624 5627 5630 5632 5635 5638 5640 5642 5645 5647 5649 5651 5653 5655 5657 5659 5662 5664 5667 5669 5672 5675 5677 5679 5681 5683 5685 5689 5691 5693
5485 5485 5486 5488 5490 5492 5494 5497 5500 5503 5506 5510 5513 5516 5520 5524 5527 5531 5534 5539 5543 5546 5552 5557 5559 5561 5564 5567 5569 5571 5573 5576 5578 5580 5582 5583 5584 5586 5587 5588 5589 5591 5593 5595 5598 5600 5601 5603 5606 5608 5610 5612 5614 5616 5618 5620 5622 5624 5626 5629 5632 5635 5637 5639 5641 5643 5645 5648 5649 5651 5653 5656 5658 5660 5663 5665 5668 5670 5673 5675 5677 5679 5681 5684 5686 5689 5691
5486 5487 5489 5491 5493 5495 5497 5499 5502 5505 5508 5511 5514 5518 5522 5526 5529 5532 5536 5539 5543 5546 5551 5556 5559 5561 5564 5567 5570 5572 5574 5577 5579 5581 5583 5584 5585 5587 5588 5589 5591 5592 5594 5596 5598 5600 5602 5604 5607 5609 5611 5613 5615 5617 5618 5620 5622 5624 5626 5629 5632 5634 5636 5638 5640 5642 5644 5647 5648 5650 5653 5655 5657 5659 5661 5663 5666 5668 5670 5673 5675 5677 5680 5682 5684 5687 5689
5488 5490 5492 5493 5495 5497 5500 5502 5504 5507 5510 5513 5516 5520 5524 5528 5531 5534 5537 5540 5544 5547 5551 5555 5558 5562 5565 5568 5570 5573 5575 5577 5579 5582 5583 5585 5586 5588 5589 5590 5592 5594 5596 5598 5600 5602 5603 5605 5607 5609 5611 5613 5615 5617 5618 5620 5622 5625 5627 5628 5631 5634 5636 5637 5639 5641 5643 5645 5647 5649 5652 5653 5655 5657 5659 5662 5665 5666 5669 5672 5674 5675 5678 5680 5682 5685 5687
5491 5493 5494 5496 5498 5500 5502 5504 5506 5509 5512 5515 5519 5522 5526 5530 5533 5536 5539 5541 5545 5548 5552 5555 5559 5563 5566 5569 5571 5573 5576 5578 5580 5582 5584 5586 5587 5589 5590 5591 5593 5594 5597 5599 5601 5602 5604 5606 5608 5610 5611 5613 5615 5617 5619 5620 5622 5624 5626 5628 5631 5634 5635 5637 5639 5641 5643 5644 5646 5648 5650 5651 5653 5656 5658 5661 5663 5665 5668 5670 5671 5673 5675 5678 5680 5682 5684
5494 5495 5497 5499 5501 5503 5505 5507 5509 5512 5515 5518 5522 5525 5529 5532 5535 5538 5540 5543 5547 5550 5554 5557 5560 5563 5566 5569 5572 5574 5577 5579 5581 5583 5585 5587 5588 5589 5591 5592 5593 5595 5597 5599 5601 5603 5605 5607 5609 5610 5612 5613 5615 5617 5619 5620 5622 5624 5626 5628 5630 5632 5634 5636 5638 5640 5642 5644 5645 5646 5647 5649 5652 5654 5657 5659 5661 5663 5665 5666 5668 5670 5673 5675 5677 5679 5681
5496 5498 5500 5501 5503 5505 5507 5509 5512 5514 5518 5521 5524 5528 5531 5533 5536 5539 5542 5545 5549 5552 5555 5559 5562 5565 5568 5570 5573 5575 5578 5580 5582 5584 5585 5587 5589 5590 5591 5593 5594 5596 5598 5599 5601 5603 5605 5606 5608 5610 5611 5613 5615 5616 5618 5620 5622 5623 5625 5627 5629 5631 5633 5635 5637 5639 5641 5643 5644 5644 5646 5648 5651 5652 5654 5657 5659 5661 5662 5663 5666 5669 5670 5672 5674 5676 5678
5499 5500 5502 5504 5506 5508 5510 5512 5515 5518 5521 5524 5527 5529 5532 5535 5538 5541 5544 5547 5551 5554 5557 5560 5564 5566 5569 5572 5574 5576 5579 5581 5582 5584 5586 5588 5589 5591 5592 5593 5595 5597 5598 5600 5602 5603 5605 5607 5608 5610 5611 5613 5614 5616 5617 5619 5621 5623 5625 5627 5629 5630 5632 5634 5636 5638 5639 5641 5642 5643 5645 5647 5649 5650 5653 5654 5656 5658 5659 5661 5664 5667 5668 5670 5671 5673 5675
5501 5503 5505 5507 5509 5511 5513 5516 5519 5521 5524 5527 5529 5532 5534 5537 5539 5542 5546 5549 5553 5556 5559 5562 5565 5567 5570 5573 5575 5576 5579 5580 5582 5584 5586 5588 5589 5591 5593 5594 5596 5597 5599 5600 5602 5603 5605 5606 5608 5609 5611 5612 5614 5616 5617 5619 5621 5622 5624 5626 5627 5629 5631 5633 5635 5635 5637 5640 5641 5640 5643 5646 5647 5648 5650 5652 5653 5655 5657 5660 5662 5664 5665 5667 5668 5670 5672
5504 5505 5507 5509 5511 5513 5516 5519 5522 5524 5526 5529 5532 5534 5536 5538 5541 5544 5548 5552 5555 5558 5560 5562 5565 5568 5571 5573 5575 5577 5579 5581 5583 5584 5586 5588 5589 5591 5593 5595 5596 5597 5598 5600 5601 5603 5604 5606 5607 5609 5610 5612 5613 5615 5616 5618 5619 5621 5622 5624 5625 5627 5629 5631 5632 5633 5636 5638 5638 5638 5641 5643 5645 5646 5648 5650 5652 5654 5655 5657 5659 5661 5662 5664 5665 5667 5669
5506 5508 5510 5512 5514 5517 5520 5522 5524 5526 5529 5531 5534 5536 5538 5540 5543 5547 5550 5553 5556 5559 5561 5563 5566 5569 5572 5574 5576 5578 5580 5581 5583 5584 5586 5588 5590 5591 5593 5594 5596 5597 5598 5599 5601 5602 5603 5605 5606 5607 5609 5610 5611 5613 5615 5617 5618 5619 5620 5622 5623 5625 5627 5628 5629 5631 5633 5634 5635 5636 5639 5640 5642 5644 5646 5648 5649 5651 5653 5654 5656 5658 5660 5661 5663 5665 5666
5509 5511 5513 5515 5518 5520 5522 5524 5526 5529 5531 5533 5535 5537 5540 5543 5546 5549 5552 5555 5558 5560 5563 5565 5567 5570 5572 5575 5577 5579 5580 5582 5583 5585 5586 5588 5589 5591 5592 5594 5595 5596 5597 5598 5600 5601 5602 5603 5604 5606 5607 5608 5610 5612 5613 5614 5615 5616 5618 5619 5621 5623 5624 5625 5627 5629 5630 5631 5633 5635 5636 5637 5639 5641 5643 5645 5647 5648 5650 5652 5653 5655 5657 5658 5660 5662 5663
5512 5514 5516 5518 5520 5522 5524 5526 5529 5531 5534 5536 5537 5540 5543 5546 5548 5551 5554 5557 5560 5562 5563 5566 5568 5571 5573 5576 5578 5580 5581 5582 5584 5585 5586 5588 5589 5591 5592 5593 5594 5595 5596 5597 5598 5599 5600 5602 5603 5604 5605 5607 5608 5610 5610 5611 5613 5614 5616 5617 5618 5619 5620 5622 5624 5625 5627 5628 5631 5632 5633 5635 5637 5639 5640 5642 5644 5645 5647 5649 5650 5652 5654 5655 5657 5658 5660
5515 5517 5519 5521 5522 5524 5527 5529 5532 5534 5536 5538 5540 5543 5546 5548 5551 5554 5557 5559 5562 5564 5565 5567 5570 5572 5574 5577 5579 5580 5582 5583 5584 5585 5587 5588 5589 5590 5591 5592 5593 5594 5595 5596 5597 5598 5599 5600 5601 5602 5604 5605 5606 5607 5608 5609 5611 5612 5613 5614 5615 5616 5618 5619 5620 5622 5624 5626 5628 5630 5631 5632 5634 5636 5638 5639 5641 5643 5644 5646 5648 5650 5651 5652 5654 5655 5657
5518 5520 5521 5523 5525 5527 5530 5532 5534 5536 5538 5541 5543 5546 5549 5551 5554 5557 5559 5561 5563 5566 5567 5569 5571 5573 5575 5577 5579 5580 5582 5583 5584 5586 5587 5588 5589 5590 5591 5591 5592 5593 5594 5595 5596 5597 5598 5598 5599 5600 5601 5602 5603 5604 5605 5606 5608 5608 5609 5610 5612 5614 5615 5616 5617 5619 5621 5623 5625 5626 5627 5629 5631 5633 5635 5637 5638 5640 5642 5643 5645 5647 5648 5649 5651 5652 5654
5521 5522 5524 5526 5528 5531 5533 5535 5536 5539 5541 5544 5546 5548 5551 5554 5556 5559 5561 5563 5565 5566 5568 5570 5572 5574 5576 5578 5579 5581 5582 5583 5584 5586 5587 5587 5588 5589 5590 5590 5591 5592 5592 5593 5594 5594 5595 5596 5596 5597 5598 5599 5600 5601 5601 5602 5603 5604 5605 5606 5608 5610 5610 5611 5613 5616 5617 5618 5620 5622 5624 5626 5628 5630 5632 5634 5636 5637 5639 5640 5642 5644 5645 5646 5648 5649 5651
5524 5525 5527 5529 5531 5534 5536 5537 5539 5542 5544 5547 5549 5551 5553 5556 5558 5560 5562 5564 5566 5568 5569 5571 5573 5575 5576 5578 5580 5581 5583 5584 5585 5586 5586 5587 5588 5588 5589 5589 5590 5590 5590 5590 5591 5591 5591 5592 5592 5593 5594 5595 5596 5597 5597 5598 5598 5599 5601 5603 5604 5605 5605 5607 5609 5611 5612 5614 5617 5619 5622 5624 5626 5627 5629 5631 5633 5634 5636 5637 5639 5641 5642 5643 5645 5646 5647
5526 5528 5530 5532 5535 5537 5539 5540 5542 5545 5547 5549 5552 5554 5556 5558 5560 5562 5564 5565 5567 5569 5571 5572 5574 5576 5578 5579 5581 5582 5583 5584 5585 5585 5586 5587 5587 5587 5588 5588 5587 5587 5587 5587 5587 5587 5588 5588 5588 5589 5590 5591 5592 5592 5593 5593 5594 5596 5597 5598 5599 5599 5601 5603 5605 5606 5609 5613 5615 5617 5619 5621 5622 5624 5626 5628 5630 5631 5633 5634 5636 5637 5639 5640 5641 5643 5644
5529 5531 5533 5535 5537 5539 5541 5543 5545 5547 5550 5552 5554 5556 5558 5560 5562 5563 5565 5567 5569 5571 5572 5574 5575 5577 5579 5580 5581 5582 5583 5584 5585 5585 5586 5586 5586 5586 5586 5586 5585 5585 5584 5584 5584 5584 5585 5585 5586 5587 5587 5588 5589 5589 5589 5590 5591 5592 5593 5592 5593 5594 5596 5598 5599 5602 5606 5609 5610 5612 5615 5617 5619 5621 5623 5625 5627 5628 5630 5631 5633 5634 5635 5637 5638 5639 5641
5532 5534 5536 5537 5540 5542 5543 5545 5548 5550 5552 5554 5555 5557 5559 5561 5563 5565 5567 5569 5570 5572 5573 5575 5576 5578 5579 5580 5581 5582 5583 5584 5585 5585 5585 5585 5585 5585 5585 5584 5583 5583 5582 5581 5581 5582 5583 5583 5584 5585 5586 5586 5586 5587 5587 5587 5588 5588 5588 5588 5588 5590 5591 5592 5594 5598 5601 5603 5605 5608 5611 5613 5615 5617 5619 5621 5623 5625 5626 5628 5629 5630 5632 5633 5634 5636 5637
5535 5537 5538 5540 5542 5544 5546 5548 5550 5552 5554 5555 5557 5559 5560 5562 5564 5566 5568 5570 5571 5573 5574 5576 5577 5578 5579 5581 5582 5583 5583 5584 5584 5585 5585 5585 5584 5584 5583 5582 5581 5580 5579 5579 5579 5580 5581 5582 5583 5583 5584 5584 5584 5584 5584 5585 5584 5584 5583 5583 5583 5584 5585 5587 5589 5592 5595 5598 5601 5604 5607 5609 5612 5614 5616 5618 5620 5621 5623 5624 5625 5626 5628 5629 5631 5632 5634
5538 5539 5541 5542 5544 5546 5548 5550 5552 5554 5555 5557 5559 5561 5562 5564 5566 5568 5569 5571 5573 5574 5575 5576 5577 5578 5580 5581 5582 5583 5583 5583 5584 5584 5584 5584 5583 5582 5581 5580 5579 5578 5577 5577 5577 5578 5580 5580 5581 5581 5582 5582 5582 5582 5582 5582 5581 5580 5578 5578 5578 5579 5580 5582 5585 5587 5591 5594 5598 5601 5604 5606 5609 5611 5613 5614 5616 5618 5619 5620 5621 5623 5624 5626 5627 5629 5631
5540 5541 5543 5544 5546 5547 5549 5551 5553 5555 5557 5559 5560 5562 5564 5565 5567 5569 5571 5572 5574 5575 5576 5577 5578 5579 5580 5581 5582 5583 5583 5583 5584 5584 5583 5583 5582 5581 5580 5579 5577 5576 5575 5575 5576 5577 5578 5579 5579 5580 5580 5580 5581 5580 5580 5580 5579 5577 5576 5576 5576 5576 5578 5580 5582 5585 5588 5591 5595 5598 5601 5603 5605 5607 5609 5611 5613 5614 5615 5617 5618 5619 5621 5623 5624 5626 5628
5542 5543 5545 5546 5547 5549 5551 5553 5555 5557 5558 5560 5562 5564 5565 5567 5569 5570 5572 5573 5575 5576 5577 5578 5579 5580 5581 5582 5583 5583 5584 5584 5584 5584 5583 5582 5581 5580 5579 5577 5575 5573 5572 5573 5574 5576 5577 5578 5579 5579 5579 5579 5579 5579 5579 5578 5577 5577 5576 5576 5576 5576 5577 5579 5581 5583 5586 5589 5592 5595 5598 5600 5603 5605 5607 5608 5610 5611 5613 5614 5615 5617 5618 5620 5622 5624 5626
5543 5545 5546 5548 5549 5551 5553 5555 5556 5558 5560 5561 5563 5565 5567 5569 5570 5572 5573 5574 5575 5577 5578 5579 5581 5582 5582 5583 5583 5584 5584 5584 5584 5583 5582 5582 5581 5580 5578 5576 5574 5572 5571 5572 5574 5576 5577 5578 5578 5578 5578 5579 5579 5579 5578 5578 5577 5577 5576 5576 5577 5577 5578 5579 5581 5583 5585 5588 5590 5593 5596 5598 5601 5603 5605 5606 5608 5609 5611 5612 5614 5615 5617 5619 5620 5622 5624
5545 5546 5548 5549 5550 5552 5554 5556 5557 5559 5561 5563 5564 5566 5568 5570 5571 5573 5574 5575 5576 5578 5579 5581 5582 5583 5584 5584 5584 5584 5584 5584 5584 5583 5582 5582 5581 5580 5579 5577 5574 5573 5573 5573 5575 5576 5577 5577 5578 5578 5578 5578 5578 5578 5578 5578 5577 5577 5576 5577 5577 5578 5579 5580 5581 5583 5585 5587 5589 5592 5594 5596 5599 5601 5603 5604 5606 5607 5609 5611 5612 5614 5616 5618 5619 5621 5623
5545 5547 5549 5550 5551 5553 5555 5556 5558 5560 5562 5564 5565 5567 5569 5571 5572 5574 5575 5576 5578 5579 5581 5582 5583 5584 5584 5584 5584 5584 5584 5584 5584 5583 5583 5582 5582 5581 5580 5578 5576 5575 5575 5575 5576 5576 5577 5577 5578 5578 5578 5578 5578 5578 5578 5578 5577 5576 5577 5577 5578 5579 5580 5581 5582 5583 5585 5587 5589 5591 5593 5596 5598 5600 5602 5603 5605 5607 5608 5610 5611 5613 5615 5617 5618 5620 5622
5546 5547 5549 5550 5552 5553 5555 5557 5558 5560 5562 5564 5566 5567 5569 5571 5573 5574 5576 5577 5578 5580 5581 5582 5584 5584 5585 5584 5584 5584 5584 5584 5584 5584 5583 5583 5582 5581 5581 5579 5578 5577 5576 5576 5576 5577 5577 5577 5578 5578 5578 5578 5578 5578 5578 5578 5578 5578 5578 5579 5579 5580 5581 5582 5583 5584 5585 5587 5589 5591 5593 5595 5597 5599 5601 5603 5604 5606 5608 5610 5611 5613 5615 5617 5618 5620 5621
5545 5546 5548 5550 5551 5553 5555 5557 5558 5560 5562 5564 5566 5567 5569 5571 5573 5574 5576 5577 5579 5580 5582 5583 5584 5584 5585 5585 5585 5585 5585 5585 5585 5585 5584 5583 5583 5582 5581 5581 5580 5579 5578 5577 5577 5577 5577 5577 5578 5578 5578 5578 5579 5579 5579 5580 5580 5579 5580 5580 5581 5582 5582 5583 5584 5585 5586 5587 5589 5591 5593 5595 5597 5599 5601 5603 5605 5606 5608 5610 5612 5613 5615 5616 5618 5620 5621
5544 5545 5547 5549 5551 5552 5554 5556 5558 5560 5561 5563 5565 5567 5569 5571 5573 5575 5576 5578 5579 5581 5582 5583 5584 5584 5585 5585 5585 5585 5585 5585 5585 5585 5584 5584 5583 5583 5582 5582 5581 5580 5579 5578 5578 5577 5577 5577 5578 5578 5579 5579 5579 5580 5580 5581 5581 5581 5581 5582 5583 5584 5585 5585 5586 5587 5588 5589 5590 5592 5593 5595 5597 5599 5601 5603 5605 5607 5608 5610 5612 5613 5615 5616 5618 5619 5621
5543 5545 5547 5549 5550 5552 5554 5556 5558 5559 5561 5563 5565 5567 5570 5572 5573 5575 5577 5578 5580 5581 5582 5583 5584 5584 5585 5585 5586 5586 5586 5586 5586 5585 5585 5585 5584 5584 5583 5583 5582 5582 5581 5580 5579 5578 5578 5577 5578 5579 5579 5580 5580 5581 5581 5582 5582 5583 5583 5583 5584 5586 5587 5588 5589 5590 5591 5591 5592 5594 5595 5596 5598 5600 5602 5604 5605 5607 5609 5610 5612 5614 5615 5617 5618 5620 5621
5541 5543 5545 5547 5549 5551 5553 5555 5557 5559 5561 5563 5565 5567 5569 5571 5573 5575 5577 5579 5580 5582 5583 5583 5584 5584 5585 5586 5586 5586 5586 5586 5586 5586 5586 5585 5585 5585 5584 5584 5583 5583 5582 5581 5581 5580 5579 5578 5578 5579 5580 5581 5581 5582 5583 5583 5584 5584 5585 5586 5586 5587 5589 5590 5591 5592 5593 5594 5594 5596 5597 5599 5600 5601 5603 5605 5606 5608 5610 5611 5613 5614 5616 5618 5619 5620 5622
5539 5541 5543 5545 5548 5549 5551 5554 5556 5558 5560 5562 5565 5567 5569 5572 5574 5576 5577 5579 5580 5582 5582 5583 5584 5585 5585 5586 5587 5587 5587 5587 5587 5586 5586 5586 5586 5585 5585 5585 5585 5584 5584 5583 5583 5582 5581 5580 5580 5580 5580 5581 5582 5583 5584 5585 5585 5586 5587 5588 5589 5589 5590 5591 5593 5594 5595 5596 5596 5597 5599 5600 5602 5603 5604 5606 5607 5609 5610 5612 5614 5616 5617 5619 5620 5622 5624
5535 5538 5540 5543 5545 5547 5549 5552 5555 5558 5560 5563 5565 5567 5569 5572 5574 5575 5577 5578 5580 5581 5582 5583 5584 5585 5586 5586 5587 5587 5587 5587 5587 5587 5587 5587 5587 5586 5586 5586 5586 5585 5585 5585 5584 5584 5583 5582 5582 5581 5581 5582 5583 5584 5585 5586 5587 5588 5588 5589 5590 5591 5592 5593 5594 5595 5597 5597 5598 5599 5600 5602 5603 5604 5606 5607 5609 5610 5612 5614 5616 5618 5619 5621 5623 5624 5626
5532 5535 5537 5540 5542 5545 5548 5551 5554 5557 5559 5562 5565 5567 5569 5571 5572 5574 5576 5578 5580 5581 5582 5583 5584 5585 5586 5587 5587 5587 5587 5587 5587 5587 5587 5587 5587 5587 5587 5587 5587 5587 5587 5586 5586 5586 5585 5585 5584 5584 5583 5583 5584 5585 5586 5587 5588 5589 5590 5591 5592 5593 5593 5595 5596 5597 5598 5599 5600 5601 5602 5603 5605 5606 5608 5609 5611 5612 5614 5616 5618 5620 5622 5623 5625 5627 5629
5529 5531 5534 5536 5539 5542 5545 5549 5553 5556 5559 5561 5564 5567 5569 5570 5571 5573 5575 5577 5579 5580 5581 5582 5584 5585 5586 5587 5587 5587 5587 5588 5588 5588 5588 5588 5588 5588 5588 5588 5588 5588 5588 5588 5588 5587 5587 5587 5587 5587 5586 5586 5586 5587 5587 5588 5589 5590 5591 5592 5593 5594 5595 5596 5597 5598 5599 5600 5601 5603 5604 5605 5607 5609 5610 5612 5614 5615 5617 5619 5621 5622 5624 5626 5627 5629 5630
5525 5527 5529 5532 5536 5539 5543 5547 5552 5555 5557 5560 5562 5565 5567 5568 5570 5572 5574 5576 5578 5580 5581 5582 5583 5585 5586 5586 5587 5587 5587 5588 5588 5588 5588 5589 5589 5589 5589 5589 5589 5589 5589 5589 5589 5589 5589 5589 5589 5589 5589 5589 5588 5589 5589 5590 5591 5591 5592 5593 5594 5595 5596 5597 5598 5600 5601 5602 5603 5605 5607 5608 5610 5611 5613 5615 5617 5618 5620 5621 5623 5625 5626 5628 5629 5631 5632
5520 5523 5525 5529 5533 5537 5541 5545 5549 5552 5555 5557 5560 5562 5565 5567 5569 5570 5573 5575 5577 5579 5580 5581 5583 5584 5585 5586 5586 5587 5587 5588 5588 5588 5589 5589 5589 5589 5589 5590 5590 5590 5590 5590 5590 5590 5591 5591 5591 5591 5592 5592 5592 5592 5592 5592 5593 5593 5594 5595 5596 5597 5598 5599 5600 5602 5603 5604 5606 5608 5609 5611 5612 5614 5616 5617 5619 5621 5622 5624 5625 5627 5628 5630 5631 5633 5634
5516 5519 5522 5526 5530 5534 5538 5542 5546 5549 5553 5555 5557 5560 5562 5565 5567 5569 5571 5574 5576 5577 5579 5581 5582 5584 5585 5586 5586 5587 5587 5588 5588 5589 5589 5589 5590 5590 5590 5590 5590 5591 5591 5591 5591 5591 5591 5592 5592 5593 5594 5594 5594 5594 5594 5595 5596 5596 5597 5597 5598 5599 5600 5602 5603 5604 5606 5607 5609 5610 5612 5613 5615 5616 5618 5619 5621 5623 5624 5626 5627 5628 5630 5631 5633 5634 5635
5510 5514 5518 5523 5527 5531 5535 5538 5542 5547 5550 5552 5554 5557 5560 5562 5564 5567 5569 5572 5574 5576 5578 5580 5581 5583 5584 5585 5586 5586 5587 5587 5588 5589 5589 5590 5590 5590 5590 5590 5591 5591 5591 5591 5592 5592 5592 5593 5593 5594 5595 5596 5596 5597 5597 5597 5598 5599 5600 5600 5601 5602 5603 5605 5606 5607 5609 5610 5612 5613 5614 5616 5617 5619 5620 5621 5623 5624 5626 5627 5628 5630 5631 5632 5634 5635 5636
5506 5510 5515 5519 5523 5527 5531 5535 5539 5543 5547 5549 5552 5554 5557 5560 5563 5565 5567 5570 5573 5575 5577 5579 5581 5582 5583 5584 5585 5586 5587 5587 5588 5588 5589 5590 5590 5590 5590 5591 5591 5591 5592 5592 5592 5593 5593 5593 5594 5595 5595 5596 5597 5598 5599 5599 5600 5601 5602 5603 5604 5605 5606 5607 5609 5610 5611 5612 5614 5615 5616 5618 5619 5620 5622 5623 5624 5626 5627 5628 5629 5630 5632 5633 5634 5635 5637